User: anonymous   Login
Location: Newark
(33.6439°N, 114.9881°W)
Time: 23:36:42
(UTC+00:00)
Language:

Tiros 1 - Orbit

View from above orbital plane
View from above orbital plane
View from above satellite
View from above satellite

Ground track
Ground track

The orbit data is extracted from the following two-line orbital elements,

1    29U 60002B   20217.65173593 -.00000133  00000-0  11289-4 0  9993
2    29  48.3800  81.1543 0023661  78.3357 282.0208 14.74365347225778
Epoch (UTC): 04 August 2020 15:38:29
Eccentricity: 0.0023661
inclination: 48.3800°
perigee height: 630 km
apogee height: 664 km
right ascension of ascending node: 81.1543°
argument of perigee: 78.3357°
revolutions per day: 14.74365347
mean anomaly at epoch: 282.0208°
orbit number at epoch: 22577

The dashed part of the orbit path shows where the satellite is in the earth's shadow,  

DLR